| time (UTC) | temp F | wind direction | speed knots | gust knots | rain 1hr in | rain 24hr in | rain mn in | humidity % | barometer mb |
| 20260505222037 | 50 | 0 | 0.0 | 0.0 | 0.06 | 0.65 | 0.03 | 10 | 1011.5 |
| 20260505220036 | 50 | 0 | 0.0 | 0.0 | 0.06 | 0.63 | 0.01 | 10 | 1011.7 |
| 20260505215042 | 50 | 0 | 0.0 | 0.0 | 0.06 | 0.62 | 0.62 | 10 | 1011.7 |
| 20260505212041 | 50 | 0 | 0.0 | 0.0 | 0.09 | 0.61 | 0.61 | 10 | 1011.8 |
| 20260505211040 | 50 | 0 | 0.0 | 0.0 | 0.09 | 0.60 | 0.60 | 10 | 1011.9 |
| 20260505210034 | 50 | 0 | 0.0 | 0.0 | 0.11 | 0.60 | 0.59 | 10 | 1011.9 |
| 20260505202039 | 50 | 0 | 0.0 | 0.0 | 0.12 | 0.55 | 0.54 | 10 | 1011.7 |
| 20260505200036 | 50 | 0 | 0.0 | 0.0 | 0.10 | 0.52 | 0.51 | 10 | 1011.7 |
| 20260505194040 | 50 | 0 | 0.0 | 0.0 | 0.09 | 0.49 | 0.48 | 10 | 1011.6 |
| 20260505193037 | 50 | 0 | 0.0 | 0.0 | 0.07 | 0.47 | 0.46 | 10 | 1011.6 |
| 20260505185041 | 51 | 0 | 0.0 | 0.0 | 0.04 | 0.42 | 0.41 | 10 | 1011.5 |
| 20260505184040 | 51 | 0 | 0.0 | 0.0 | 0.03 | 0.41 | 0.40 | 10 | 1011.5 |
| 20260505183046 | 51 | 0 | 0.0 | 0.0 | 0.02 | 0.40 | 0.39 | 10 | 1011.4 |
| 20260505182044 | 51 | 0 | 0.0 | 0.0 | 0.02 | 0.40 | 0.39 | 10 | 1011.4 |
| 20260505181045 | 51 | 0 | 0.0 | 0.0 | 0.02 | 0.39 | 0.39 | 99 | 1011.5 |
| 20260505180035 | 51 | 0 | 0.0 | 0.0 | 0.01 | 0.39 | 0.38 | 99 | 1011.5 |
| 20260505175040 | 51 | 0 | 0.0 | 0.0 | 0.00 | 0.38 | 0.37 | 99 | 1011.5 |
| 20260505174042 | 51 | 0 | 0.0 | 0.0 | 0.00 | 0.38 | 0.37 | 99 | 1011.5 |
| 20260505172033 | 52 | 0 | 0.0 | 0.0 | 0.00 | 0.38 | 0.37 | 99 | 1011.5 |
| 20260505171041 | 51 | 0 | 0.0 | 0.0 | 0.00 | 0.38 | 0.37 | 99 | 1011.5 |
| 20260505170037 | 52 | 0 | 0.0 | 0.0 | 0.00 | 0.38 | 0.37 | 99 | 1011.5 |
| 20260505165041 | 51 | 0 | 0.0 | 0.0 | 0.00 | 0.38 | 0.37 | 98 | 1011.5 |
| 20260505164037 | 52 | 0 | 0.0 | 0.0 | 0.00 | 0.38 | 0.37 | 98 | 1011.5 |
| 20260505163039 | 52 | 0 | 0.0 | 0.0 | 0.00 | 0.38 | 0.37 | 98 | 1011.5 |
| 20260505162036 | 52 | 0 | 0.0 | 0.0 | 0.00 | 0.38 | 0.37 | 99 | 1011.6 |
| 20260505161041 | 52 | 0 | 0.0 | 0.0 | 0.00 | 0.38 | 0.37 | 99 | 1011.7 |
| 20260505153037 | 52 | 0 | 0.0 | 0.0 | 0.00 | 0.38 | 0.37 | 98 | 1011.7 |
| 20260505152037 | 52 | 0 | 0.0 | 0.0 | 0.00 | 0.38 | 0.37 | 98 | 1011.8 |
| 20260505151039 | 52 | 0 | 0.0 | 0.0 | 0.00 | 0.38 | 0.37 | 98 | 1011.8 |
| 20260505124038 | 52 | 0 | 0.0 | 0.0 | 0.00 | 0.38 | 0.37 | 10 | 1012.5 |
| 20260505122035 | 52 | 0 | 0.0 | 0.0 | 0.00 | 0.38 | 0.37 | 10 | 1012.6 |
| 20260505120042 | 52 | 0 | 0.0 | 0.0 | 0.00 | 0.38 | 0.37 | 10 | 1012.8 |
| 20260505114041 | 52 | 0 | 0.0 | 0.0 | 0.00 | 0.38 | 0.37 | 10 | 1012.8 |
| 20260505112040 | 52 | 0 | 0.0 | 0.0 | 0.00 | 0.38 | 0.37 | 10 | 1012.8 |
| 20260505102035 | 52 | 0 | 0.0 | 0.0 | 0.01 | 0.38 | 0.37 | 10 | 1012.9 |
| 20260505101037 | 52 | 0 | 0.0 | 0.0 | 0.01 | 0.38 | 0.37 | 10 | 1012.9 |
| 20260505095038 | 52 | 0 | 0.0 | 0.0 | 0.01 | 0.38 | 0.37 | 10 | 1013.0 |
| 20260505093029 | 52 | 0 | 0.0 | 0.0 | 0.01 | 0.37 | 0.36 | 10 | 1013.0 |
| 20260505091037 | 52 | 0 | 0.0 | 0.0 | 0.01 | 0.37 | 0.36 | 10 | 1013.0 |
| 20260505090035 | 53 | 0 | 0.0 | 0.0 | 0.01 | 0.37 | 0.36 | 10 | 1013.1 |
| 20260505085038 | 52 | 0 | 0.0 | 0.0 | 0.01 | 0.37 | 0.36 | 10 | 1013.0 |
| 20260505084024 | 52 | 0 | 0.0 | 0.0 | 0.01 | 0.37 | 0.36 | 10 | 1013.0 |
| 20260505083035 | 52 | 0 | 0.0 | 0.0 | 0.01 | 0.37 | 0.36 | 10 | 1013.1 |
| 20260505082032 | 52 | 0 | 0.0 | 0.0 | 0.00 | 0.36 | 0.35 | 10 | 1013.0 |
| 20260505075037 | 52 | 0 | 0.0 | 0.0 | 0.00 | 0.36 | 0.35 | 10 | 1013.0 |
| 20260505074041 | 53 | 0 | 0.0 | 0.0 | 0.00 | 0.36 | 0.35 | 10 | 1013.0 |
| 20260505073038 | 53 | 0 | 0.0 | 0.0 | 0.00 | 0.36 | 0.35 | 10 | 1013.0 |
| 20260505072042 | 53 | 0 | 0.0 | 0.0 | 0.00 | 0.36 | 0.35 | 10 | 1013.0 |
| 20260505071041 | 53 | 0 | 0.0 | 0.0 | 0.00 | 0.36 | 0.35 | 10 | 1013.0 |
| 20260505070036 | 53 | 0 | 0.0 | 0.0 | 0.00 | 0.36 | 0.35 | 10 | 1013.0 |
| 20260505065035 | 53 | 0 | 0.0 | 0.0 | 0.00 | 0.36 | 0.35 | 10 | 1013.1 |
| 20260505062036 | 53 | 0 | 0.0 | 0.0 | 0.02 | 0.36 | 0.35 | 10 | 1013.1 |
| 20260505061026 | 54 | 0 | 0.0 | 0.0 | 0.03 | 0.36 | 0.35 | 10 | 1013.1 |
| 20260505060024 | 54 | 0 | 0.0 | 0.0 | 0.05 | 0.36 | 0.35 | 10 | 1013.1 |
| 20260505055026 | 54 | 0 | 0.0 | 0.0 | 0.07 | 0.36 | 0.35 | 10 | 1013.1 |
| 20260505053025 | 54 | 0 | 0.0 | 0.0 | 0.08 | 0.36 | 0.35 | 10 | 1013.1 |
| 20260505052033 | 54 | 0 | 0.0 | 0.0 | 0.06 | 0.35 | 0.34 | 10 | 1013.0 |
| 20260505051040 | 54 | 0 | 0.0 | 0.0 | 0.06 | 0.34 | 0.33 | 10 | 1013.0 |
| 20260505035040 | 55 | 0 | 0.0 | 0.0 | 0.13 | 0.28 | 0.28 | 10 | 1013.0 |
| 20260505034039 | 55 | 0 | 0.0 | 0.0 | 0.15 | 0.28 | 0.27 | 10 | 1013.0 |
| 20260505033041 | 55 | 0 | 0.0 | 0.0 | 0.18 | 0.27 | 0.26 | 10 | 1013.0 |
| 20260505031034 | 55 | 0 | 0.0 | 0.0 | 0.24 | 0.26 | 0.25 | 10 | 1013.2 |
| 20260505030038 | 55 | 0 | 0.0 | 0.0 | 0.22 | 0.24 | 0.23 | 10 | 1013.2 |
| 20260505025041 | 55 | 0 | 0.0 | 0.0 | 0.19 | 0.20 | 0.19 | 10 | 1013.3 |
| 20260505024038 | 55 | 0 | 0.0 | 0.0 | 0.14 | 0.15 | 0.14 | 10 | 1013.3 |
| 20260505023041 | 55 | 0 | 0.0 | 0.0 | 0.12 | 0.13 | 0.12 | 10 | 1013.4 |
| 20260505022027 | 55 | 0 | 0.0 | 0.0 | 0.08 | 0.09 | 0.08 | 10 | 1013.4 |
| 20260505021037 | 55 | 0 | 0.0 | 0.0 | 0.04 | 0.05 | 0.04 | 10 | 1013.4 |
| 20260505020027 | 55 | 0 | 0.0 | 0.0 | 0.02 | 0.02 | 0.02 | 10 | 1013.4 |
| 20260505014038 | 55 | 0 | 0.0 | 0.0 | 0.00 | 0.01 | 0.00 | 10 | 1013.4 |
| 20260505011045 | 55 | 0 | 0.0 | 0.0 | 0.00 | 0.01 | 0.00 | 10 | 1013.6 |
| 20260505010032 | 54 | 0 | 0.0 | 0.0 | 0.00 | 0.01 | 0.00 | 10 | 1013.8 |
| 20260505004038 | 54 | 0 | 0.0 | 0.0 | 0.00 | 0.01 | 0.00 | 10 | 1013.9 |
| 20260505003035 | 54 | 0 | 0.0 | 0.0 | 0.00 | 0.01 | 0.00 | 10 | 1013.9 |
| 20260505001039 | 54 | 0 | 0.0 | 0.0 | 0.00 | 0.02 | 0.00 | 10 | 1014.1 |
| 20260504234041 | 54 | 0 | 0.0 | 0.0 | 0.00 | 0.02 | 0.00 | 10 | 1014.2 |
| 20260504233037 | 54 | 0 | 0.0 | 0.0 | 0.00 | 0.02 | 0.00 | 10 | 1014.3 |
| 20260504232035 | 54 | 0 | 0.0 | 0.0 | 0.00 | 0.02 | 0.00 | 10 | 1014.2 |
| 20260504231037 | 55 | 0 | 0.0 | 0.0 | 0.00 | 0.02 | 0.00 | 10 | 1014.3 |
| 20260504225047 | 55 | 0 | 0.0 | 0.0 | 0.00 | 0.02 | 0.00 | 10 | 1014.6 |